Location: Mount Cross
(36.6390°N, 79.4878°W)
Time: 16:03:09
(UTC+00:00)

Vanguard 2 - All Passes

Search period start: 31 March 2023 00:00
Search period end: 10 April 2023 00:00
Orbit: 552 x 2927 km, 32.9° (Epoch: 31 March)

Date Brightness Start Highest point End Pass type
(mag) Time Alt. Az. Time Alt. Az. Time Alt. Az.
31 Mar - 05:46:10 10° S 05:55:36 19° SE 06:06:10 10° E visible
31 Mar - 07:50:26 10° SW 08:05:41 48° SSE 08:21:46 10° E visible
31 Mar - 10:00:05 10° WSW 10:17:48 73° SSE 10:33:05 10° E visible
31 Mar - 12:12:39 10° W 12:30:18 75° S 12:42:41 10° ESE daylight
31 Mar - 14:26:27 10° W 14:40:59 50° SSW 14:50:19 10° SE daylight
31 Mar - 16:42:44 10° W 16:48:48 16° SW 16:53:38 10° SSW daylight
01 Apr - 06:00:10 10° S 06:11:20 26° SE 06:24:17 10° E visible
01 Apr - 08:06:06 10° SW 08:21:49 56° SSE 08:38:23 10° E visible
01 Apr - 10:16:26 10° WSW 10:34:17 76° S 10:49:29 10° E visible
01 Apr - 12:29:12 10° W 12:46:42 72° SSW 12:58:54 10° ESE daylight
01 Apr - 14:43:12 10° W 14:56:55 41° SW 15:05:59 10° SSE daylight
02 Apr - 06:14:51 10° SSW 06:27:05 33° SE 06:41:41 10° E visible
02 Apr - 08:21:59 10° SW 08:38:03 63° SSE 08:54:55 10° E visible
02 Apr - 10:32:51 10° W 10:50:47 78° S 11:05:51 10° E visible
02 Apr - 12:45:47 10° W 13:03:01 66° SSW 13:15:02 10° ESE daylight
02 Apr - 15:00:08 10° W 15:12:42 33° SW 15:21:21 10° SSE daylight
03 Apr - 04:29:26 10° SSE 04:34:03 12° SE 04:39:07 10° ESE visible
03 Apr - 06:29:58 10° SSW 06:42:55 41° SE 06:58:41 10° E visible
03 Apr - 08:38:02 10° WSW 08:54:22 69° SSE 09:11:24 10° E visible
03 Apr - 10:49:18 10° W 11:07:17 78° S 11:22:12 10° E daylight
03 Apr - 13:02:22 10° W 13:19:13 59° SSW 13:31:01 10° SE daylight
03 Apr - 15:17:21 10° W 15:28:20 26° SW 15:36:22 10° S daylight
04 Apr - 04:41:44 10° SSE 04:49:36 18° SE 04:59:00 10° E visible
04 Apr - 06:45:24 10° SW 06:58:51 49° SSE 07:15:27 10° E visible
04 Apr - 08:54:12 10° WSW 09:10:45 74° SSE 09:27:50 10° E visible
04 Apr - 11:05:47 10° W 11:23:44 76° S 11:38:28 10° ESE daylight
04 Apr - 13:18:58 10° W 13:35:16 52° SSW 13:46:48 10° SE daylight
04 Apr - 15:35:07 10° W 15:43:54 19° SW 15:50:46 10° S daylight
05 Apr - 04:55:45 10° S 05:05:10 25° SE 05:17:06 10° E visible
05 Apr - 07:01:04 10° SW 07:14:53 56° SSE 07:32:03 10° E visible
05 Apr - 09:10:29 10° WSW 09:27:12 77° S 09:44:15 10° E visible
05 Apr - 11:22:16 10° W 11:40:08 72° SSW 11:54:40 10° ESE daylight
05 Apr - 13:35:41 10° W 13:51:11 44° SW 14:02:24 10° SSE daylight
05 Apr - 15:54:13 10° WSW 15:59:23 13° SW 16:03:52 10° SSW daylight
06 Apr - 05:10:28 10° SSW 05:20:47 32° SE 05:34:29 10° E visible
06 Apr - 07:16:56 10° SW 07:31:02 63° SSE 07:48:36 10° E visible
06 Apr - 09:26:49 10° W 09:43:40 78° S 10:00:38 10° E visible
06 Apr - 11:38:44 10° W 11:56:26 67° SSW 12:10:45 10° ESE daylight
06 Apr - 13:52:33 10° W 14:06:58 36° SW 14:17:41 10° SSE daylight
07 Apr - 03:28:03 10° SE 03:28:32 10° SE 03:29:01 10° ESE night (unlit)
07 Apr - 05:25:36 10° SSW 05:36:30 40° SE 05:51:28 10° E visible
07 Apr - 07:32:56 10° WSW 07:47:17 70° SSE 08:05:05 10° E visible
07 Apr - 09:43:10 10° W 10:00:08 78° S 10:16:59 10° ESE visible
07 Apr - 11:55:14 10° W 12:12:37 60° SSW 12:26:41 10° SE daylight
07 Apr - 14:09:42 10° W 14:22:38 28° SW 14:32:37 10° S daylight
08 Apr - 03:38:05 10° SSE 03:43:58 16° SE 03:51:09 10° E visible
08 Apr - 05:41:03 10° SW 05:52:20 48° SSE 06:08:12 10° E visible
08 Apr - 07:49:04 10° WSW 08:03:36 74° SSE 08:21:32 10° E visible
08 Apr - 09:59:33 10° W 10:16:34 76° S 10:33:17 10° ESE visible
08 Apr - 12:11:47 10° W 12:28:41 52° SSW 12:42:25 10° SE daylight
08 Apr - 14:27:22 10° W 14:38:12 21° SW 14:47:01 10° S daylight
09 Apr - 03:51:59 10° S 03:59:27 22° SE 04:09:21 10° E visible
09 Apr - 05:56:43 10° SW 06:08:16 56° SSE 06:24:49 10° E visible
09 Apr - 08:05:16 10° WSW 08:19:59 77° S 08:37:59 10° E visible
09 Apr - 10:15:56 10° W 10:32:56 72° SSW 10:49:27 10° ESE visible
09 Apr - 12:28:24 10° W 12:44:37 45° SW 12:57:56 10° SSE daylight
09 Apr - 14:46:03 10° W 14:53:42 15° SW 15:00:21 10° SSW daylight
